This demonstration page uses our WeatherBlox Daily Observations layout. Learn more.

Left ArrowRight Arrow

39.51506, -84.39828

Hourly Observations for June 24, 2022

Temp ( °F °C ) Dew Point ( °F °C ) Humidity (%) Winds ( mph kmh ) Pressure ( in mb ) Visibility ( mi km ) Precip ( " mm )
12:15 am 00:15 Clear 61 15.9 56 13.1 84 84 N 3 6 30.00 1016 10 16 0.00 0.00
12:35 am 00:35 Clear 60 15.3 54 12.2 82 82 NNW 3 6 30.01 1016 10 16 0.00 0.00
12:55 am 00:55 Clear 59 14.8 55 13 89 89 N 5 7 30.01 1016 10 16 0.00 0.00
1:15 am 01:15 Clear 58 14.2 55 13 93 93 N 6 9 30.02 1017 10 16 0.00 0.00
1:35 am 01:35 Clear 59 15.2 55 12.5 84 84 Calm 30.02 1016 10 16 0.00 0.00
1:55 am 01:55 Clear 58 14.5 55 12.7 89 89 Calm 30.02 1017 10 16 0.00 0.00
2:15 am 02:15 Clear 58 14.7 53 11.9 83 83 N 5 7 30.02 1016 10 16 0.00 0.00
2:35 am 02:35 Clear 57 14.1 54 12.2 88 88 N 3 6 30.02 1017 10 16 0.00 0.00
2:55 am 02:55 Clear 56 13.2 55 12.5 96 96 N 5 7 30.02 1017 10 16 0.00 0.00
3:15 am 03:15 Clear 56 13.2 55 12.6 96 96 N 3 6 30.02 1017 10 16 0.00 0.00
3:35 am 03:35 Clear 55 13 54 12.4 96 96 N 5 7 30.01 1016 10 16 0.00 0.00
3:55 am 03:55 Clear 56 13.5 55 12.5 94 94 N 5 7 30.01 1016 10 16 0.00 0.00
4:15 am 04:15 Clear 56 13.2 55 12.5 96 96 Calm 30.02 1017 10 16 0.00 0.00
4:35 am 04:35 Clear 54 12.3 54 12.1 99 99 N 3 6 30.02 1017 10 16 0.00 0.00
4:55 am 04:55 Clear 55 12.9 54 12.4 97 97 N 3 6 30.02 1017 10 16 0.00 0.00
5:15 am 05:15 Clear 55 12.5 54 12.1 97 97 N 3 6 30.03 1017 10 16 0.00 0.00
5:35 am 05:35 Clear 54 12.2 54 12 99 99 NNE 5 7 30.03 1017 10 16 0.00 0.00
5:55 am 05:55 Clear 54 12.2 54 12.1 99 99 NNW 3 6 30.04 1017 10 16 0.00 0.00
6:15 am 06:15 Sunny 53 11.6 53 11.5 99 99 Calm 30.04 1017 10 16 0.00 0.00
6:35 am 06:35 Sunny 54 12.3 53 11.9 97 97 Calm 30.05 1018 10 16 0.00 0.00
6:55 am 06:55 Sunny 55 12.6 54 12.4 99 99 Calm 30.05 1018 10 16 0.00 0.00
7:15 am 07:15 Sunny 57 14.1 56 13.4 96 96 ENE 3 6 30.06 1018 10 16 0.00 0.00
7:35 am 07:35 Sunny 60 15.7 58 14.6 93 93 Calm 30.05 1018 10 16 0.00 0.00
7:55 am 07:55 Sunny 62 16.5 58 14.6 89 89 Calm 30.06 1018 10 16 0.00 0.00
8:15 am 08:15 Sunny 64 17.8 59 14.8 83 83 Calm 30.07 1018 10 16 0.00 0.00
8:35 am 08:35 Sunny 67 19.2 56 13.2 68 68 Calm 30.07 1018 10 16 0.00 0.00
8:55 am 08:55 Sunny 68 19.9 56 13.6 67 67 NNE 3 6 30.06 1018 10 16 0.00 0.00
9:15 am 09:15 Sunny 69 20.8 56 13.5 63 63 NNE 3 6 30.06 1018 10 16 0.00 0.00
9:35 am 09:35 Sunny 71 21.8 57 13.7 60 60 NE 5 7 30.07 1018 10 16 0.00 0.00
9:55 am 09:55 Sunny 73 22.7 57 14.1 58 58 NNE 5 7 30.07 1018 10 16 0.00 0.00
10:15 am 10:15 Sunny 76 24.2 58 14.4 54 54 Calm 30.07 1018 10 16 0.00 0.00
10:35 am 10:35 Sunny 76 24.7 57 14 51 51 Calm 30.06 1018 10 16 0.00 0.00
10:55 am 10:55 Sunny 79 26.2 54 12.3 42 42 Calm 30.06 1018 10 16 0.00 0.00
11:15 am 11:15 Sunny 80 26.9 52 11 37 37 E 8 13 30.06 1018 10 16 0.00 0.00
11:35 am 11:35 Sunny 80 26.8 51 10.6 36 36 ESE 6 9 30.06 1018 10 16 0.00 0.00
11:55 am 11:55 Hazy 81 27.2 51 10.4 35 35 ENE 7 11 30.06 1018 7 11 0.00 0.00
12:15 pm 12:15 Sunny 82 27.6 50 10 33 33 ENE 7 11 30.06 1018 10 16 0.00 0.00
12:35 pm 12:35 Mostly Cloudy with Haze 82 27.8 51 10.7 34 34 E 3 6 30.06 1018 1 2 0.00 0.00
12:55 pm 12:55 Mostly Cloudy with Haze 82 28 53 11.5 36 36 NNE 5 7 30.06 1018 1 1 0.00 0.00
1:15 pm 13:15 Sunny 83 28.1 51 10.8 34 34 S 3 6 30.06 1018 10 16 0.00 0.00
1:35 pm 13:35 Sunny 83 28.1 51 10.8 34 34 NE 5 7 30.05 1017 10 16 0.00 0.00
1:55 pm 13:55 Sunny 84 28.8 52 11.1 33 33 NNW 6 9 30.04 1017 10 16 0.00 0.00
2:15 pm 14:15 Sunny 84 28.7 51 10.3 32 32 E 5 7 30.04 1017 10 16 0.00 0.00
2:35 pm 14:35 Sunny 85 29.2 54 12 35 35 NE 8 13 30.03 1017 10 16 0.00 0.00
2:55 pm 14:55 Sunny 85 29.2 51 10.4 31 31 NNE 5 7 30.03 1017 10 16 0.00 0.00
3:15 pm 15:15 Hazy 85 29.2 52 10.9 32 32 NNE 6 9 30.03 1017 4 6 0.00 0.00
3:35 pm 15:35 Sunny 85 29.4 51 10.7 31 31 NE 3 6 30.02 1017 10 16 0.00 0.00
3:55 pm 15:55 Sunny 86 29.9 52 11.1 31 31 NNE 7 11 30.02 1017 10 16 0.00 0.00
4:15 pm 16:15 Sunny 85 29.6 51 10.5 31 31 ENE 5 7 30.01 1016 10 16 0.00 0.00
4:35 pm 16:35 Sunny 86 30 51 10.8 30 30 NW 7 11 30.01 1016 10 16 0.00 0.00
4:55 pm 16:55 Sunny 86 30.1 51 10.3 29 29 Calm 30.01 1016 10 16 0.00 0.00
5:15 pm 17:15 Sunny 86 30.2 50 9.8 28 28 N 6 9 30.01 1016 10 16 0.00 0.00
5:35 pm 17:35 Sunny 86 29.9 49 9.7 28 28 Calm 30.01 1016 10 16 0.00 0.00
5:55 pm 17:55 Sunny 85 29.5 50 10.1 30 30 Calm 30.01 1016 10 16 0.00 0.00
6:15 pm 18:15 Sunny 86 30 51 10.3 29 29 NNW 5 7 30.00 1016 10 16 0.00 0.00
6:35 pm 18:35 Sunny 86 29.8 51 10.6 30 30 NNW 3 6 29.99 1016 10 16 0.00 0.00
6:55 pm 18:55 Sunny 85 29.7 53 11.5 32 32 NW 5 7 29.99 1016 10 16 0.00 0.00
7:15 pm 19:15 Sunny 85 29.3 52 11.2 33 33 NNW 3 6 30.00 1016 10 16 0.00 0.00
7:35 pm 19:35 Sunny 84 28.9 54 12.3 36 36 NW 5 7 30.00 1016 10 16 0.00 0.00
7:55 pm 19:55 Sunny 83 28.4 53 11.5 35 35 NW 3 6 30.01 1016 10 16 0.00 0.00
8:15 pm 20:15 Sunny 78 25.6 63 17.3 60 60 NNW 3 6 30.02 1017 10 16 0.00 0.00
8:35 pm 20:35 Sunny 77 24.9 60 15.8 57 57 Calm 30.02 1017 10 16 0.00 0.00
8:55 pm 20:55 Sunny 71 21.8 65 18.1 80 80 Calm 30.03 1017 10 16 0.00 0.00
9:15 pm 21:15 Clear 70 21.2 64 17.6 80 80 WNW 3 6 30.02 1017 10 16 0.00 0.00
9:35 pm 21:35 Clear 69 20.3 60 15.6 75 75 NNW 5 7 30.03 1017 10 16 0.00 0.00
9:55 pm 21:55 Clear 66 19.1 61 16.2 83 83 Calm 30.04 1017 10 16 0.00 0.00
10:15 pm 22:15 Clear 66 18.9 61 15.9 83 83 Calm 30.04 1017 10 16 0.00 0.00
10:35 pm 22:35 Clear 65 18.6 60 15.6 83 83 Calm 30.05 1018 10 16 0.00 0.00
10:55 pm 22:55 Clear 66 18.7 60 15.7 83 83 NE 6 9 30.05 1018 10 16 0.00 0.00
11:15 pm 23:15 Clear 66 18.8 62 16.9 89 89 N 3 6 30.05 1018 10 16 0.00 0.00
11:35 pm 23:35 Clear 63 17.1 61 16.2 94 94 NNW 3 6 30.05 1018 10 16 0.00 0.00
11:55 pm 23:55 Clear 62 16.7 61 16 96 96 NNW 5 7 30.05 1018 10 16 0.00 0.00

Powered by AerisWeather